Location: Dead Woman Crossing
(43.5369°N, 106.3228°W)
Time: 02:21:54
(UTC+00:00)

BEESAT 2 - Pass Details

Date: 28 June 2022
Orbit: 481 x 508 km, 64.9° (Epoch: 07 August)

Event Time Altitude Azimuth Distance (km) Brightness Sun altitude
Rises 03:57:35 0° 321° (NW) 2,625 ? -10.1°
Reaches altitude 10° 03:59:48 10° 316° (NW) 1,736 ? -10.4°
Maximum altitude 04:03:33 49° 241° (WSW) 662 ? -10.9°
Enters shadow 04:06:47 13° 168° (SSE) 1,528 ? -11.2°
